NOAA-18
1 28654U 05018A 10244.72213423 -.00000154 00000-0 -60470-4 0 04644
2 28654 098.9548 190.7840 0013887 194.1071 165.9715 14.11382793272238
NOAA-19
1 33591U 09005A 10244.72689061 .00000051 00000-0 52277-4 0 06603
2 33591 098.7916 185.2339 0015126 073.2412 287.0420 14.11080342080700
HUBBLE
1 20580U 90037B 10245.04443848 .00000431 00000-0 20149-4 0 6389
2 20580 028.4723 098.0892 0003379 294.3708 065.6530 15.01026337916317
ISS
1 25544U 98067A 10246.02087851 .00008494 00000-0 69682-4 0 8218
2 25544 051.6457 192.3593 0008009 327.7100 125.2858 15.71426498675713
CO-58
1 28895U 05043F 10244.67561886 .00000091 00000-0 28250-4 0 06710
2 28895 098.0024 126.5741 0018842 048.3198 311.9613 14.59926648258147
FALCON
1 30776U 07006E 10244.56926002 .00000597 00000-0 45578-4 0 09182
2 30776 035.4348 300.5227 0000319 053.3965 306.6781 15.03789867191562
MAST
1 31126U 07012K 10245.59288253 -.00000128 00000-0 -18378-4 0 9531
2 31126 097.9302 283.5771 0094689 346.2653 013.5974 14.53614353179307
CAPE1
1 31130U 07012P 10244.54797620 .00000457 00000-0 11581-3 0 09747
2 31130 097.9347 279.8472 0102995 358.1766 001.9029 14.52217242178748
COMPASS
1 32787U 08021E 10245.68314439 .00000570 00000-0 78446-4 0 7654
2 32787 097.8872 309.3504 0016561 036.1623 324.0725 14.81953732126975
AAUSAT2
1 32788U 08021F 10245.67862129 .00000596 00000-0 81467-4 0 7574
2 32788 097.8875 309.4901 0016313 038.1451 322.0949 14.82100559126986
DO-64
1 32789U 08021G 10244.80148031 .00000196 00000-0 31178-4 0 07770
2 32789 097.8944 309.1883 0016332 038.8418 321.3976 14.82279558126855
CO-66
1 32791U 08021J 10244.23098813 .00000683 00000-0 93145-4 0 07595
2 32791 097.8901 307.9251 0016863 039.6541 320.5893 14.81726772126719
RS-30
1 32953U 08025A 10245.64046482 .00000010 00000-0 00000 0 0 84
2 32953 082.5072 341.5171 0017673 295.1851 064.7396 12.43007528103365
TACSAT-3
1 35001U 09028A 10244.91436133 .00003467 00000-0 82907-4 0 03881
2 35001 040.4569 112.9831 0021747 223.4306 136.4782 15.42500299072484
PHARMSAT
1 35002U 09028B 10244.90842306 .00003351 00000-0 78985-4 0 03584
2 35002 040.4693 110.7722 0024551 226.1949 133.6816 15.42952956072508
HAWKSAT1
1 35003U 09028C 10245.87386776 .00006889 00000-0 13739-3 0 3793
2 35003 040.4634 097.2710 0023729 251.7201 108.1032 15.46792395 72747
CP6
1 35004U 09028D 10244.91948864 .00008523 00000-0 16259-3 0 03764
2 35004 040.4644 101.4552 0022938 248.8287 111.0076 15.47887536072602
AEROCUB3
1 35005U 09028E 10244.96043757 .00033092 00000-0 44733-3 0 04338
2 35005 040.4684 094.0503 0021923 275.6962 084.1359 15.56716967072693
CASTOR
1 35694U 09038F 10230.44082147 .07179566 12689-4 99310-4 0 6559
2 35694 051.5930 222.0149 0004218 308.0851 053.0105 16.48877011 61107
METEOR-M
1 35865U 09049A 10245.75419222 .00000176 00000-0 10000-3 0 6189
2 35865 098.7506 298.9700 0002772 124.4149 235.7291 14.21831406 49745
RS-38
1 35869U 09049E 10245.78761686 .00000177 00000-0 10000-3 0 6305
2 35869 098.7498 299.0409 0005175 133.5650 226.5927 14.21987762 49757
